SQ7RAF-15 Weather Reports


Display with metric or nautical units.
time (UTC)temp
F
wind
direction
speed
MPH
gust
MPH
rain 1hr
in
rain 24hr
in
rain mn
in
humidity
%
barometer
mb
20260905175038 55 0.0 0.0 0.02 0.19 0.08 95 1016.3
20260905174535 55 0.0 0.0 0.02 0.19 0.08 95 1016.3
20260905174045 55 323 0.0 1.0 0.02 0.19 0.08 94 1016.4
20260905173526 56 321 0.0 2.0 0.02 0.19 0.08 94 1016.4
20260905173037 56 323 1.0 2.0 0.02 0.19 0.08 93 1016.5
20260905172549 57 320 1.0 3.0 0.02 0.19 0.08 91 1016.6
20260905172029 61 301 4.0 21.0 0.02 0.19 0.08 84 1016.7
20260905171541 62 314 2.0 5.0 0.00 0.17 0.06 77 1016.1
20260905171021 64 317 1.0 5.0 0.00 0.17 0.06 74 1015.9
20260905170533 64 315 3.0 7.0 0.00 0.17 0.06 68 1015.7
20260905170034 65 321 2.0 5.0 0.00 0.17 0.06 68 1015.6
20260905165542 65 324 2.0 5.0 0.00 0.17 0.06 67 1015.5
20260905165021 65 317 3.0 6.0 0.00 0.17 0.06 66 1015.5
20260905164533 65 318 3.0 7.0 0.00 0.17 0.06 66 1015.5
20260905164045 65 310 2.0 5.0 0.00 0.17 0.06 66 1015.4
20260905163525 66 330 2.0 10.0 0.00 0.17 0.06 66 1015.3
20260905163037 66 326 3.0 8.0 0.00 0.17 0.06 64 1015.4
20260905162549 66 318 3.0 7.0 0.00 0.17 0.06 64 1015.2
20260905162045 66 313 3.0 7.0 0.00 0.17 0.06 63 1015.1
20260905161525 66 328 2.0 5.0 0.00 0.17 0.06 63 1015.0
20260905161021 66 340 2.0 6.0 0.00 0.17 0.06 63 1015.1
20260905160533 66 315 3.0 6.0 0.00 0.17 0.06 63 1015.0
20260905160045 66 317 3.0 8.0 0.00 0.17 0.06 62 1014.9
20260905155525 66 321 2.0 6.0 0.00 0.17 0.06 62 1014.8
20260905155037 66 335 2.0 5.0 0.00 0.17 0.06 63 1014.8
20260905154549 66 321 3.0 8.0 0.00 0.17 0.06 62 1014.7
20260905154045 67 304 4.0 10.0 0.00 0.17 0.06 62 1014.8
20260905153525 67 313 2.0 8.0 0.00 0.17 0.06 62 1014.8
20260905153037 67 307 2.0 5.0 0.00 0.17 0.06 63 1014.8
20260905152549 67 326 2.0 5.0 0.00 0.17 0.06 62 1014.8
20260905152029 67 293 2.0 9.0 0.00 0.17 0.06 62 1014.8
20260905151541 67 319 3.0 11.0 0.00 0.17 0.06 61 1014.7
20260905151021 67 316 3.0 6.0 0.00 0.17 0.06 59 1014.7
20260905150533 67 320 4.0 9.0 0.00 0.17 0.06 59 1014.6
20260905150046 67 306 2.0 6.0 0.00 0.17 0.06 60 1014.6
20260905145525 67 334 3.0 10.0 0.00 0.17 0.06 61 1014.6
20260905145037 67 312 3.0 8.0 0.00 0.17 0.06 61 1014.6
20260905144549 67 315 2.0 6.0 0.00 0.17 0.06 61 1014.5
20260905144029 68 328 3.0 10.0 0.00 0.17 0.06 61 1014.5
20260905143525 67 318 4.0 10.0 0.00 0.17 0.06 62 1014.6
20260905143021 67 314 2.0 6.0 0.00 0.17 0.06 62 1014.7
20260905142533 66 324 3.0 6.0 0.00 0.17 0.06 63 1014.6
20260905142045 67 329 3.0 7.0 0.00 0.17 0.06 61 1014.6
20260905141525 68 320 2.0 6.0 0.00 0.17 0.06 63 1014.7
20260905141037 67 333 3.0 8.0 0.00 0.17 0.06 67 1014.7
20260905140549 67 308 2.0 6.0 0.00 0.17 0.06 66 1014.7
20260905140030 67 321 2.0 9.0 0.00 0.17 0.06 66 1014.7
20260905135525 68 326 3.0 7.0 0.00 0.17 0.06 65 1014.8
20260905135037 67 314 3.0 7.0 0.00 0.17 0.06 65 1014.7
20260905134549 67 323 3.0 7.0 0.00 0.17 0.06 66 1014.8
20260905134029 66 312 2.0 5.0 0.00 0.17 0.06 67 1014.8
20260905133541 66 330 2.0 3.0 0.00 0.17 0.06 67 1014.9
20260905133021 67 312 2.0 7.0 0.00 0.17 0.06 66 1014.8
20260905132533 67 309 2.0 8.0 0.00 0.17 0.06 66 1014.8
20260905132045 66 327 3.0 9.0 0.00 0.17 0.06 67 1014.8
20260905131541 66 313 2.0 6.0 0.00 0.17 0.06 67 1014.8
20260905131021 67 330 2.0 6.0 0.00 0.17 0.06 66 1014.7
20260905130533 67 322 3.0 11.0 0.00 0.17 0.06 65 1014.7
20260905130029 67 325 2.0 5.0 0.00 0.17 0.06 67 1014.9
20260905125541 67 324 3.0 7.0 0.00 0.17 0.06 65 1014.8
20260905125021 68 314 2.0 6.0 0.00 0.17 0.06 63 1014.8
20260905124533 68 313 4.0 14.0 0.00 0.17 0.06 63 1014.8
20260905124045 69 323 3.0 6.0 0.00 0.17 0.06 61 1014.8
20260905123525 69 315 2.0 8.0 0.00 0.17 0.06 61 1014.8
20260905123037 68 316 3.0 9.0 0.00 0.17 0.06 62 1014.9
20260905122538 69 291 3.0 10.0 0.00 0.17 0.06 61 1014.9
20260905122045 70 325 3.0 11.0 0.00 0.17 0.06 60 1014.9
20260905121541 70 304 3.0 7.0 0.00 0.17 0.06 60 1014.9
20260905121021 69 332 4.0 11.0 0.00 0.17 0.06 60 1014.9
20260905120533 70 311 4.0 17.0 0.00 0.17 0.06 60 1014.9
20260905120045 69 286 2.0 7.0 0.00 0.17 0.06 62 1014.9
20260905115525 69 322 4.0 8.0 0.00 0.17 0.06 60 1014.9
20260905115037 69 314 4.0 10.0 0.00 0.17 0.06 60 1015.0
20260905114538 68 306 3.0 7.0 0.00 0.17 0.06 61 1015.0
20260905114031 68 325 4.0 9.0 0.00 0.17 0.06 61 1014.9
20260905113541 68 320 5.0 16.0 0.00 0.17 0.06 61 1014.9
20260905113038 68 324 4.0 11.0 0.00 0.17 0.06 61 1014.8
20260905112535 67 312 4.0 8.0 0.00 0.17 0.06 61 1014.8
20260905112045 68 324 4.0 9.0 0.00 0.17 0.06 61 1014.8
20260905111526 67 310 5.0 11.0 0.00 0.17 0.06 61 1014.8
20260905111037 67 326 4.0 10.0 0.00 0.17 0.06 64 1014.9
20260905110518 67 313 5.0 17.0 0.00 0.17 0.06 64 1014.8
20260905110101 67 302 4.0 14.0 0.00 0.17 0.06 64 1014.8
20260905105525 67 302 4.0 7.0 0.00 0.17 0.06 65 1014.8
20260905105021 66 316 5.0 13.0 0.00 0.17 0.06 65 1014.7
20260905104533 65 334 3.0 11.0 0.00 0.17 0.06 67 1014.8
20260905104045 66 318 3.0 11.0 0.00 0.17 0.06 67 1014.9
20260905103525 67 331 4.0 14.0 0.00 0.17 0.06 68 1014.7
20260905103037 67 318 4.0 9.0 0.00 0.17 0.06 67 1014.6
20260905102517 68 298 3.0 7.0 0.00 0.17 0.06 69 1014.6
20260905102029 67 324 3.0 13.0 0.00 0.17 0.06 69 1014.7
20260905101541 66 313 4.0 9.0 0.00 0.17 0.06 69 1014.7
20260905101021 64 311 3.0 13.0 0.00 0.17 0.06 72 1014.7
20260905100533 64 318 5.0 10.0 0.00 0.17 0.06 73 1014.7
20260905100045 63 319 3.0 6.0 0.00 0.17 0.06 76 1014.5
20260905095525 64 317 3.0 7.0 0.00 0.17 0.06 75 1014.7
20260905095037 66 299 4.0 10.0 0.00 0.17 0.06 72 1014.6
20260905094517 68 315 3.0 10.0 0.00 0.17 0.06 71 1014.5
20260905094045 68 312 4.0 9.0 0.00 0.17 0.06 70 1014.3
20260905093525 68 314 3.0 7.0 0.00 0.17 0.06 71 1014.3
20260905093037 68 321 2.0 10.0 0.00 0.17 0.06 72 1014.3
20260905092517 67 312 3.0 7.0 0.00 0.17 0.06 72 1014.2
20260905092029 67 314 3.0 7.0 0.00 0.17 0.06 73 1014.2
20260905091541 66 312 4.0 13.0 0.00 0.17 0.06 73 1014.2
20260905091021 65 334 3.0 9.0 0.00 0.17 0.06 73 1014.1
20260905090533 64 344 4.0 9.0 0.00 0.17 0.06 74 1014.3
20260905090046 65 300 3.0 7.0 0.00 0.17 0.06 76 1014.2
20260905085526 63 314 3.0 14.0 0.00 0.17 0.06 79 1014.1
20260905085021 63 338 3.0 7.0 0.00 0.17 0.06 80 1014.2
20260905084535 63 315 3.0 15.0 0.00 0.17 0.06 81 1014.1
20260905084045 64 323 2.0 6.0 0.00 0.17 0.06 79 1014.1
20260905083525 64 309 3.0 7.0 0.00 0.17 0.06 77 1013.9
20260905083037 63 315 3.0 6.0 0.00 0.17 0.06 80 1014.0
20260905082517 62 329 2.0 7.0 0.00 0.17 0.06 82 1013.9
20260905082029 62 318 4.0 11.0 0.00 0.17 0.06 81 1014.0
20260905081541 62 307 3.0 9.0 0.00 0.17 0.06 81 1014.0
20260905081021 64 310 3.0 10.0 0.00 0.17 0.06 81 1013.9
20260905080533 64 338 3.0 7.0 0.00 0.17 0.06 82 1013.9
20260905080045 63 320 3.0 10.0 0.00 0.17 0.06 82 1013.9
20260905075525 63 319 2.0 6.0 0.00 0.17 0.06 83 1013.9
20260905075037 63 301 2.0 7.0 0.00 0.17 0.06 82 1013.8
20260905074517 63 328 2.0 6.0 0.00 0.17 0.06 84 1013.8
20260905074029 62 317 2.0 6.0 0.00 0.17 0.06 85 1013.7
20260905073527 63 328 2.0 7.0 0.00 0.17 0.06 85 1013.8
20260905073037 62 338 3.0 11.0 0.00 0.17 0.06 85 1013.7
20260905072517 62 323 3.0 8.0 0.00 0.17 0.06 85 1013.7
20260905072029 62 317 2.0 5.0 0.00 0.17 0.06 85 1013.6
20260905071541 62 307 3.0 10.0 0.00 0.17 0.06 86 1013.5
20260905071021 61 309 2.0 6.0 0.00 0.17 0.06 88 1013.6
20260905070533 61 309 4.0 14.0 0.00 0.17 0.06 89 1013.4
20260905070045 61 325 2.0 7.0 0.00 0.17 0.06 90 1013.4
20260905065541 61 326 2.0 7.0 0.00 0.17 0.06 90 1013.3
20260905065021 61 313 2.0 5.0 0.00 0.17 0.06 90 1013.2
20260905064533 61 306 2.0 7.0 0.00 0.17 0.06 92 1013.2
20260905064045 60 318 2.0 6.0 0.00 0.17 0.06 92 1013.1
20260905063525 60 323 2.0 6.0 0.00 0.17 0.06 93 1013.2
20260905063021 60 320 3.0 8.0 0.00 0.17 0.06 92 1013.1
20260905062533 60 319 3.0 8.0 0.00 0.17 0.06 93 1013.2
20260905062045 60 319 2.0 6.0 0.00 0.17 0.06 94 1013.0
20260905061526 60 327 2.0 5.0 0.00 0.17 0.06 94 1012.9
20260905061037 60 323 1.0 5.0 0.00 0.17 0.06 94 1012.7
20260905060517 59 328 1.0 5.0 0.00 0.17 0.06 94 1012.7
20260905060029 59 307 2.0 6.0 0.00 0.17 0.06 95 1012.6
20260905055541 59 315 3.0 7.0 0.00 0.17 0.06 96 1012.7
20260905055021 59 316 2.0 5.0 0.00 0.17 0.06 96 1012.7
20260905054534 58 308 1.0 5.0 0.00 0.17 0.06 97 1012.6
20260905054046 59 330 2.0 3.0 0.00 0.17 0.06 97 1012.5
20260905053525 59 326 1.0 5.0 0.00 0.17 0.06 97 1012.4
20260905053038 59 323 1.0 2.0 0.00 0.17 0.06 97 1012.5
20260905052536 59 314 1.0 6.0 0.00 0.17 0.06 97 1012.4
20260905052045 59 317 1.0 3.0 0.00 0.17 0.06 97 1012.3
20260905051526 58 324 1.0 3.0 0.00 0.17 0.06 97 1012.4
20260905051039 58 312 1.0 2.0 0.00 0.17 0.06 97 1012.2
20260905050518 58 339 1.0 6.0 0.00 0.17 0.06 97 1012.0
20260905050030 58 318 1.0 2.0 0.00 0.17 0.06 97 1011.9
20260905045541 58 325 1.0 5.0 0.00 0.17 0.06 97 1011.9
20260905045021 58 326 1.0 3.0 0.00 0.17 0.06 97 1011.8
20260905044533 58 325 1.0 3.0 0.00 0.17 0.06 98 1011.9
20260905044045 58 327 1.0 6.0 0.00 0.17 0.06 98 1011.9
20260905043525 58 327 1.0 3.0 0.00 0.17 0.06 98 1011.9
20260905043037 58 328 1.0 2.0 0.00 0.17 0.06 98 1011.7
20260905042517 58 331 1.0 2.0 0.01 0.17 0.06 97 1011.6
20260905042029 58 325 1.0 3.0 0.01 0.17 0.06 97 1011.7
20260905041541 58 323 2.0 3.0 0.01 0.17 0.06 97 1011.5
20260905041021 59 325 1.0 3.0 0.01 0.17 0.06 97 1011.5
20260905040533 59 331 1.0 5.0 0.01 0.17 0.06 97 1011.4
20260905040046 59 350 1.0 3.0 0.01 0.17 0.06 97 1011.3
20260905035525 59 310 1.0 2.0 0.01 0.17 0.06 97 1011.3
20260905035037 59 327 2.0 3.0 0.01 0.17 0.06 97 1011.3
20260905034517 59 327 2.0 6.0 0.01 0.17 0.06 97 1011.1
20260905034029 59 317 1.0 2.0 0.01 0.17 0.06 97 1011.0
20260905033525 59 319 1.0 5.0 0.01 0.17 0.06 97 1011.0
20260905033037 59 314 1.0 5.0 0.01 0.17 0.06 97 1010.9
20260905032517 59 337 1.0 6.0 0.00 0.16 0.05 97 1011.0
20260905032029 59 319 1.0 3.0 0.00 0.16 0.05 97 1010.9
20260905031542 59 320 1.0 3.0 0.00 0.16 0.05 97 1010.9
20260905031021 59 326 2.0 5.0 0.00 0.16 0.05 97 1010.7
20260905030533 59 320 2.0 5.0 0.00 0.16 0.05 97 1010.5
20260905030045 59 315 2.0 8.0 0.00 0.16 0.05 97 1010.4
20260905025525 59 310 2.0 3.0 0.00 0.16 0.05 97 1010.5
20260905025037 59 325 1.0 3.0 0.00 0.16 0.05 97 1010.4
20260905024518 59 324 2.0 3.0 0.00 0.16 0.05 98 1010.4
20260905024029 59 333 2.0 6.0 0.00 0.16 0.05 98 1010.5
20260905023541 59 316 1.0 6.0 0.00 0.16 0.05 98 1010.2
20260905023022 59 328 1.0 5.0 0.00 0.16 0.05 98 1010.2
20260905022533 59 327 1.0 5.0 0.00 0.16 0.05 98 1010.2
20260905022045 59 341 1.0 5.0 0.01 0.16 0.05 98 1010.1
20260905021526 59 318 2.0 5.0 0.01 0.16 0.05 98 1010.3
20260905021037 59 319 1.0 3.0 0.01 0.16 0.05 98 1010.4
20260905020517 59 323 2.0 3.0 0.01 0.16 0.05 98 1010.3
20260905020029 59 317 1.0 3.0 0.01 0.16 0.05 98 1010.0
20260905015541 59 325 2.0 5.0 0.01 0.16 0.05 98 1010.0
20260905015021 59 329 1.0 2.0 0.01 0.16 0.05 98 1009.9
20260905014534 59 313 1.0 2.0 0.01 0.16 0.05 98 1009.8
20260905014029 59 335 2.0 6.0 0.01 0.16 0.05 98 1010.0
20260905013541 60 310 1.0 6.0 0.01 0.16 0.05 98 1010.1
20260905013021 60 313 1.0 5.0 0.02 0.16 0.05 98 1010.1
20260905012533 60 316 1.0 3.0 0.02 0.16 0.05 98 1010.0
20260905012045 60 324 1.0 2.0 0.01 0.15 0.04 98 1009.7
20260905011525 60 349 1.0 5.0 0.01 0.15 0.04 98 1010.0
20260905011037 60 321 1.0 5.0 0.01 0.15 0.04 98 1010.0
20260905010517 60 328 2.0 3.0 0.01 0.15 0.04 98 1009.9
20260905010029 60 344 1.0 5.0 0.01 0.15 0.04 98 1009.5
20260905005541 60 345 1.0 5.0 0.01 0.15 0.04 98 1009.5
20260905005022 60 332 1.0 3.0 0.01 0.15 0.04 97 1009.3
20260905004533 60 324 2.0 6.0 0.02 0.15 0.04 97 1009.6
20260905004045 60 317 2.0 5.0 0.02 0.15 0.04 97 1009.7
20260905003525 60 328 2.0 8.0 0.02 0.15 0.04 97 1009.9
20260905003037 60 332 2.0 8.0 0.01 0.14 0.03 97 1009.9
20260905002517 60 330 2.0 7.0 0.01 0.14 0.03 97 1009.8
20260905002029 60 351 2.0 5.0 0.01 0.14 0.03 97 1009.5
20260905001541 60 324 1.0 3.0 0.02 0.14 0.03 97 1009.7
20260905001021 60 310 1.0 3.0 0.02 0.14 0.03 97 1009.3
20260905000533 60 316 2.0 6.0 0.02 0.14 0.03 97 1008.9
20260905000045 60 323 1.0 5.0 0.02 0.14 0.03 97 1008.6
20260904235525 60 315 2.0 5.0 0.02 0.14 0.03 97 1008.5
20260904235037 60 330 2.0 5.0 0.03 0.14 0.03 97 1008.8
20260904234517 60 323 1.0 3.0 0.02 0.13 0.02 97 1008.7
20260904234029 60 325 2.0 5.0 0.02 0.13 0.02 97 1008.6
20260904233532 60 317 2.0 5.0 0.02 0.13 0.02 97 1008.8
20260904233037 60 328 2.0 5.0 0.02 0.13 0.02 97 1008.6
20260904232517 60 322 2.0 5.0 0.02 0.13 0.02 97 1008.5
20260904232030 60 326 2.0 6.0 0.02 0.13 0.02 97 1008.5
20260904231542 60 337 2.0 7.0 0.01 0.12 0.01 97 1008.6
20260904231021 60 320 2.0 6.0 0.01 0.12 0.01 97 1008.7
20260904230535 60 334 2.0 8.0 0.01 0.12 0.01 97 1008.4
20260904230045 60 336 2.0 5.0 0.01 0.12 0.01 97 1008.1
20260904225526 61 331 1.0 5.0 0.01 0.12 0.01 97 1008.1
20260904225037 61 319 2.0 3.0 0.00 0.11 0.00 97 1007.8
20260904224518 61 325 2.0 5.0 0.00 0.11 0.00 97 1007.7
20260904224030 61 302 2.0 5.0 0.00 0.11 0.00 97 1007.9
20260904223541 61 301 2.0 5.0 0.00 0.11 0.00 97 1007.9
20260904223021 62 317 2.0 3.0 0.00 0.11 0.00 98 1007.7
20260904222533 62 313 2.0 5.0 0.00 0.11 0.00 98 1007.2
20260904222046 62 340 1.0 2.0 0.00 0.11 0.00 98 1006.6
20260904221526 62 271 2.0 8.0 0.00 0.11 0.00 98 1006.5
20260904221037 63 325 2.0 5.0 0.00 0.11 0.00 98 1007.1
20260904220518 63 341 1.0 2.0 0.00 0.11 0.00 98 1007.1
20260904220029 63 318 1.0 3.0 0.00 0.11 0.00 98 1007.1
20260904215541 63 318 1.0 5.0 0.00 0.11 0.11 98 1007.2
20260904215021 63 304 1.0 2.0 0.00 0.11 0.11 98 1007.2
20260904214533 64 304 1.0 3.0 0.00 0.11 0.11 98 1007.1
20260904214045 64 323 1.0 3.0 0.00 0.11 0.11 98 1007.2
20260904213526 64 322 1.0 3.0 0.00 0.11 0.11 98 1007.1
20260904213037 64 289 1.0 3.0 0.00 0.11 0.11 98 1007.2
20260904212517 64 330 1.0 6.0 0.00 0.11 0.11 98 1006.9
20260904212047 64 344 1.0 1.0 0.00 0.11 0.11 98 1007.0
20260904211526 64 334 1.0 2.0 0.00 0.11 0.11 98 1007.4
20260904211037 64 341 2.0 5.0 0.00 0.11 0.11 98 1007.7
20260904210517 64 300 1.0 5.0 0.00 0.11 0.11 98 1007.5
20260904210029 64 316 1.0 5.0 0.00 0.11 0.11 98 1007.6
20260904205541 64 326 1.0 2.0 0.00 0.11 0.11 98 1007.6
20260904205053 63 331 0.0 1.0 0.01 0.11 0.11 97 1007.5
20260904204517 63 323 0.0 1.0 0.01 0.11 0.11 97 1006.9
20260904204029 63 323 0.0 2.0 0.01 0.11 0.11 97 1007.1
20260904203541 63 323 0.0 1.0 0.03 0.11 0.11 97 1007.1
20260904203037 63 321 0.0 1.0 0.06 0.11 0.11 97 1007.1
20260904202517 63 320 1.0 2.0 0.08 0.11 0.11 97 1007.2
20260904202029 63 322 1.0 2.0 0.11 0.11 0.11 97 1007.2
20260904201541 64 323 1.0 2.0 0.11 0.11 0.11 97 1007.2
20260904201021 64 328 1.0 2.0 0.11 0.11 0.11 97 1007.4
20260904200533 64 314 2.0 6.0 0.11 0.11 0.11 96 1007.4
20260904200045 64 325 2.0 5.0 0.11 0.11 0.11 96 1007.4
20260904195525 65 315 2.0 6.0 0.11 0.11 0.11 96 1007.3
20260904195037 65 330 5.0 10.0 0.10 0.10 0.10 96 1007.4
20260904194517 66 300 3.0 13.0 0.10 0.10 0.10 96 1007.5
20260904194029 66 317 4.0 16.0 0.10 0.10 0.10 95 1007.3
20260904193541 68 304 6.0 16.0 0.08 0.08 0.08 94 1006.8
20260904193021 69 311 3.0 9.0 0.05 0.05 0.05 91 1006.0
20260904192533 72 318 2.0 7.0 0.03 0.03 0.03 86 1005.5
20260904192045 74 107 3.0 7.0 0.00 0.00 0.00 76 1005.4
20260904191525 75 290 3.0 7.0 0.00 0.00 0.00 72 1005.0
20260904191037 75 277 2.0 7.0 0.00 0.00 0.00 71 1005.0
20260904190517 75 331 2.0 5.0 0.00 0.00 0.00 71 1004.9
20260904190045 75 100 2.0 7.0 0.00 0.00 0.00 71 1005.0
20260904185526 75 248 2.0 10.0 0.00 0.00 0.00 71 1005.2
20260904185037 74 47 2.0 5.0 0.00 0.00 0.00 72 1005.2
20260904184517 74 7 2.0 8.0 0.00 0.00 0.00 72 1005.3
20260904184029 74 289 2.0 5.0 0.00 0.00 0.00 72 1005.1
20260904183541 74 310 2.0 6.0 0.00 0.00 0.00 73 1005.3
20260904183021 74 14 2.0 5.0 0.00 0.00 0.00 73 1005.3
20260904182533 74 172 2.0 7.0 0.00 0.00 0.00 72 1005.3
20260904182046 74 223 2.0 8.0 0.00 0.00 0.00 73 1005.4
20260904181525 74 150 2.0 8.0 0.00 0.00 0.00 72 1005.5
20260904181037 74 91 3.0 10.0 0.00 0.00 0.00 73 1005.6
20260904180517 74 86 2.0 5.0 0.00 0.00 0.00 73 1005.7
20260904180030 74 319 2.0 5.0 0.00 0.00 0.00 73 1005.7
20260904175541 74 186 2.0 7.0 0.00 0.00 0.00 73 1005.8